Year,Month,Day,Hour,Minute,Value (Times are PST for temperature in C)
2010,08,15,00,00,19.80
2010,08,15,00,01,19.80
2010,08,15,00,02,19.80
2010,08,15,00,03,19.80
2010,08,15,00,04,19.80
2010,08,15,00,05,19.80
2010,08,15,00,06,19.80
2010,08,15,00,07,19.80
2010,08,15,00,08,19.70
2010,08,15,00,09,19.70
2010,08,15,00,10,19.70
2010,08,15,00,11,19.70
2010,08,15,00,12,19.70
2010,08,15,00,13,19.70
2010,08,15,00,14,19.70
2010,08,15,00,15,19.70
2010,08,15,00,16,19.70
2010,08,15,00,17,19.70
2010,08,15,00,18,19.80
2010,08,15,00,19,19.80
2010,08,15,00,20,19.80
2010,08,15,00,21,19.80
2010,08,15,00,22,19.70
2010,08,15,00,23,19.70
2010,08,15,00,24,19.70
2010,08,15,00,25,19.60
2010,08,15,00,26,19.60
2010,08,15,00,27,19.50
2010,08,15,00,28,19.40
2010,08,15,00,29,19.30
2010,08,15,00,30,19.20
2010,08,15,00,31,19.20
2010,08,15,00,32,19.10
2010,08,15,00,33,19.10
2010,08,15,00,34,19.10
2010,08,15,00,35,19.00
2010,08,15,00,36,19.00
2010,08,15,00,37,19.00
2010,08,15,00,38,19.00
2010,08,15,00,39,19.00
2010,08,15,00,40,19.00
2010,08,15,00,41,19.10
2010,08,15,00,42,19.10
2010,08,15,00,43,19.10
2010,08,15,00,44,19.10
2010,08,15,00,45,19.10
2010,08,15,00,46,19.10
2010,08,15,00,47,19.10
2010,08,15,00,48,19.10
2010,08,15,00,49,19.10
2010,08,15,00,50,19.10
2010,08,15,00,51,19.10
2010,08,15,00,52,19.00
2010,08,15,00,53,19.00
2010,08,15,00,54,19.00
2010,08,15,00,55,18.90
2010,08,15,00,56,18.90
2010,08,15,00,57,18.90
2010,08,15,00,58,18.90
2010,08,15,00,59,18.80
2010,08,15,01,00,18.80
2010,08,15,01,01,18.80
2010,08,15,01,02,18.80
2010,08,15,01,03,18.80
2010,08,15,01,04,18.70
2010,08,15,01,05,18.70
2010,08,15,01,06,18.70
2010,08,15,01,07,18.70
2010,08,15,01,08,18.70
2010,08,15,01,09,18.70
2010,08,15,01,10,18.70
2010,08,15,01,11,18.70
2010,08,15,01,12,18.70
2010,08,15,01,13,18.70
2010,08,15,01,14,18.80
2010,08,15,01,15,18.80
2010,08,15,01,16,18.80
2010,08,15,01,17,18.80
2010,08,15,01,18,18.80
2010,08,15,01,19,18.80
2010,08,15,01,20,18.80
2010,08,15,01,21,18.70
2010,08,15,01,22,18.70
2010,08,15,01,23,18.70
2010,08,15,01,24,18.70
2010,08,15,01,25,18.70
2010,08,15,01,26,18.60
2010,08,15,01,27,18.60
2010,08,15,01,28,18.60
2010,08,15,01,29,18.50
2010,08,15,01,30,18.50
2010,08,15,01,31,18.50
2010,08,15,01,32,18.40
2010,08,15,01,33,18.40
2010,08,15,01,34,18.40
2010,08,15,01,35,18.30
2010,08,15,01,36,18.30
2010,08,15,01,37,18.20
2010,08,15,01,38,18.20
2010,08,15,01,39,18.20
2010,08,15,01,40,18.10
2010,08,15,01,41,18.10
2010,08,15,01,42,18.10
2010,08,15,01,43,18.00
2010,08,15,01,44,18.00
2010,08,15,01,45,18.00
2010,08,15,01,46,18.00
2010,08,15,01,47,18.00
2010,08,15,01,48,17.90
2010,08,15,01,49,17.90
2010,08,15,01,50,17.90
2010,08,15,01,51,17.90
2010,08,15,01,52,18.00
2010,08,15,01,53,17.90
2010,08,15,01,54,18.00
2010,08,15,01,55,18.00
2010,08,15,01,56,18.00
2010,08,15,01,57,18.00
2010,08,15,01,58,17.90
2010,08,15,01,59,17.90
2010,08,15,02,00,17.90
2010,08,15,02,01,17.90
2010,08,15,02,02,17.80
2010,08,15,02,03,17.80
2010,08,15,02,04,17.80
2010,08,15,02,05,17.80
2010,08,15,02,06,17.70
2010,08,15,02,07,17.70
2010,08,15,02,08,17.70
2010,08,15,02,09,17.70
2010,08,15,02,10,17.60
2010,08,15,02,11,17.60
2010,08,15,02,12,17.60
2010,08,15,02,13,17.70
2010,08,15,02,14,17.70
2010,08,15,02,15,17.70
2010,08,15,02,16,17.70
2010,08,15,02,17,17.70
2010,08,15,02,18,17.70
2010,08,15,02,19,17.70
2010,08,15,02,20,17.70
2010,08,15,02,21,17.60
2010,08,15,02,22,17.60
2010,08,15,02,23,17.60
2010,08,15,02,24,17.60
2010,08,15,02,25,17.60
2010,08,15,02,26,17.60
2010,08,15,02,27,17.60
2010,08,15,02,28,17.60
2010,08,15,02,29,17.70
2010,08,15,02,30,17.70
2010,08,15,02,31,17.70
2010,08,15,02,32,17.70
2010,08,15,02,33,17.70
2010,08,15,02,34,17.70
2010,08,15,02,35,17.70
2010,08,15,02,36,17.70
2010,08,15,02,37,17.70
2010,08,15,02,38,17.70
2010,08,15,02,39,17.70
2010,08,15,02,40,17.70
2010,08,15,02,41,17.70
2010,08,15,02,42,17.70
2010,08,15,02,43,17.80
2010,08,15,02,44,17.80
2010,08,15,02,45,17.90
2010,08,15,02,46,17.90
2010,08,15,02,47,18.00
2010,08,15,02,48,18.00
2010,08,15,02,49,18.00
2010,08,15,02,50,18.10
2010,08,15,02,51,18.10
2010,08,15,02,52,18.10
2010,08,15,02,53,18.10
2010,08,15,02,54,18.10
2010,08,15,02,55,18.10
2010,08,15,02,56,18.10
2010,08,15,02,57,18.20
2010,08,15,02,58,18.20
2010,08,15,02,59,18.20
2010,08,15,03,00,18.20
2010,08,15,03,01,18.20
2010,08,15,03,02,18.20
2010,08,15,03,03,18.20
2010,08,15,03,04,18.20
2010,08,15,03,05,18.20
2010,08,15,03,06,18.20
2010,08,15,03,07,18.20
2010,08,15,03,08,18.20
2010,08,15,03,09,18.20
2010,08,15,03,10,18.20
2010,08,15,03,11,18.20
2010,08,15,03,12,18.20
2010,08,15,03,13,18.20
2010,08,15,03,14,18.20
2010,08,15,03,15,18.20
2010,08,15,03,16,18.20
2010,08,15,03,17,18.20
2010,08,15,03,18,18.20
2010,08,15,03,19,18.20
2010,08,15,03,20,18.20
2010,08,15,03,21,18.20
2010,08,15,03,22,18.20
2010,08,15,03,23,18.20
2010,08,15,03,24,18.20
2010,08,15,03,25,18.20
2010,08,15,03,26,18.20
2010,08,15,03,27,18.20
2010,08,15,03,28,18.10
2010,08,15,03,29,18.10
2010,08,15,03,30,18.10
2010,08,15,03,31,18.10
2010,08,15,03,34,18.00
2010,08,15,03,35,17.90
2010,08,15,03,36,17.90
2010,08,15,03,37,18.00
2010,08,15,03,38,18.00
2010,08,15,03,39,18.00
2010,08,15,03,40,18.00
2010,08,15,03,41,18.10
2010,08,15,03,42,18.10
2010,08,15,03,43,18.00
2010,08,15,03,44,18.00
2010,08,15,03,45,18.10
2010,08,15,03,46,18.00
2010,08,15,03,47,18.00
2010,08,15,03,48,18.00
2010,08,15,03,49,17.90
2010,08,15,03,50,17.90
2010,08,15,03,51,17.90
2010,08,15,03,52,17.80
2010,08,15,03,53,17.80
2010,08,15,03,54,17.80
2010,08,15,03,55,17.80
2010,08,15,03,56,17.70
2010,08,15,03,57,17.70
2010,08,15,03,58,17.70
2010,08,15,03,59,17.70
2010,08,15,04,00,17.70
2010,08,15,04,01,17.70
2010,08,15,04,02,17.70
2010,08,15,04,03,17.70
2010,08,15,04,04,17.70
2010,08,15,04,05,17.70
2010,08,15,04,06,17.70
2010,08,15,04,07,17.70
2010,08,15,04,08,17.70
2010,08,15,04,09,17.70
2010,08,15,04,10,17.60
2010,08,15,04,11,17.60
2010,08,15,04,12,17.60
2010,08,15,04,13,17.60
2010,08,15,04,14,17.60
2010,08,15,04,15,17.60
2010,08,15,04,16,17.60
2010,08,15,04,17,17.60
2010,08,15,04,18,17.60
2010,08,15,04,19,17.60
2010,08,15,04,20,17.60
2010,08,15,04,21,17.60
2010,08,15,04,22,17.60
2010,08,15,04,23,17.60
2010,08,15,04,24,17.60
2010,08,15,04,25,17.60
2010,08,15,04,26,17.60
2010,08,15,04,27,17.50
2010,08,15,04,28,17.50
2010,08,15,04,29,17.50
2010,08,15,04,30,17.50
2010,08,15,04,31,17.50
2010,08,15,04,32,17.60
2010,08,15,04,33,17.60
2010,08,15,04,34,17.60
2010,08,15,04,35,17.60
2010,08,15,04,36,17.60
2010,08,15,04,37,17.70
2010,08,15,04,38,17.70
2010,08,15,04,39,17.70
2010,08,15,04,40,17.80
2010,08,15,04,41,17.80
2010,08,15,04,42,17.80
2010,08,15,04,43,17.80
2010,08,15,04,44,17.80
2010,08,15,04,45,17.80
2010,08,15,04,46,17.80
2010,08,15,04,47,17.80
2010,08,15,04,48,17.80
2010,08,15,04,49,17.70
2010,08,15,04,50,17.70
2010,08,15,04,51,17.70
2010,08,15,04,52,17.70
2010,08,15,04,53,17.70
2010,08,15,04,54,17.70
2010,08,15,04,55,17.70
2010,08,15,04,56,17.70
2010,08,15,04,57,17.70
2010,08,15,04,58,17.60
2010,08,15,04,59,17.60
2010,08,15,05,00,17.60
2010,08,15,05,01,17.50
2010,08,15,05,02,17.50
2010,08,15,05,03,17.50
2010,08,15,05,04,17.40
2010,08,15,05,05,17.40
2010,08,15,05,06,17.40
2010,08,15,05,07,17.40
2010,08,15,05,08,17.40
2010,08,15,05,09,17.50
2010,08,15,05,10,17.50
2010,08,15,05,11,17.60
2010,08,15,05,12,17.60
2010,08,15,05,13,17.60
2010,08,15,05,14,17.60
2010,08,15,05,15,17.60
2010,08,15,05,16,17.60
2010,08,15,05,17,17.60
2010,08,15,05,18,17.60
2010,08,15,05,19,17.60
2010,08,15,05,20,17.60
2010,08,15,05,21,17.50
2010,08,15,05,22,17.50
2010,08,15,05,23,17.40
2010,08,15,05,24,17.40
2010,08,15,05,25,17.30
2010,08,15,05,26,17.30
2010,08,15,05,27,17.20
2010,08,15,05,28,17.10
2010,08,15,05,29,17.10
2010,08,15,05,30,17.00
2010,08,15,05,31,16.90
2010,08,15,05,32,16.90
2010,08,15,05,33,16.90
2010,08,15,05,34,16.80
2010,08,15,05,35,16.80
2010,08,15,05,36,16.80
2010,08,15,05,37,16.80
2010,08,15,05,38,16.80
2010,08,15,05,39,16.80
2010,08,15,05,40,16.80
2010,08,15,05,41,16.80
2010,08,15,05,42,16.80
2010,08,15,05,43,16.80
2010,08,15,05,44,16.80
2010,08,15,05,45,16.80
2010,08,15,05,46,16.80
2010,08,15,05,47,16.80
2010,08,15,05,48,16.80
2010,08,15,05,49,16.80
2010,08,15,05,50,16.80
2010,08,15,05,51,16.80
2010,08,15,05,52,16.80
2010,08,15,05,53,16.80
2010,08,15,05,54,16.90
2010,08,15,05,55,16.90
2010,08,15,05,56,17.00
2010,08,15,05,57,17.00
2010,08,15,05,58,17.10
2010,08,15,05,59,17.10
2010,08,15,06,00,17.10
2010,08,15,06,01,17.10
2010,08,15,06,02,17.10
2010,08,15,06,03,17.20
2010,08,15,06,04,17.20
2010,08,15,06,05,17.20
2010,08,15,06,06,17.30
2010,08,15,06,07,17.30
2010,08,15,06,08,17.30
2010,08,15,06,09,17.30
2010,08,15,06,10,17.30
2010,08,15,06,11,17.30
2010,08,15,06,12,17.30
2010,08,15,06,13,17.30
2010,08,15,06,14,17.30
2010,08,15,06,15,17.30
2010,08,15,06,16,17.30
2010,08,15,06,17,17.30
2010,08,15,06,18,17.20
2010,08,15,06,19,17.20
2010,08,15,06,20,17.20
2010,08,15,06,21,17.20
2010,08,15,06,22,17.20
2010,08,15,06,23,17.30
2010,08,15,06,24,17.30
2010,08,15,06,25,17.30
2010,08,15,06,26,17.40
2010,08,15,06,27,17.40
2010,08,15,06,28,17.50
2010,08,15,06,29,17.50
2010,08,15,06,30,17.50
2010,08,15,06,31,17.50
2010,08,15,06,32,17.40
2010,08,15,06,33,17.40
2010,08,15,06,34,17.40
2010,08,15,06,35,17.30
2010,08,15,06,36,17.30
2010,08,15,06,37,17.30
2010,08,15,06,38,17.30
2010,08,15,06,39,17.20
2010,08,15,06,40,17.20
2010,08,15,06,41,17.20
2010,08,15,06,42,17.20
2010,08,15,06,43,17.20
2010,08,15,06,44,17.20
2010,08,15,06,45,17.30
2010,08,15,06,46,17.30
2010,08,15,06,47,17.30
2010,08,15,06,48,17.40
2010,08,15,06,49,17.40
2010,08,15,06,50,17.40
2010,08,15,06,51,17.40
2010,08,15,06,52,17.40
2010,08,15,06,53,17.40
2010,08,15,06,54,17.40
2010,08,15,06,55,17.40
2010,08,15,06,56,17.40
2010,08,15,06,57,17.40
2010,08,15,06,58,17.40
2010,08,15,06,59,17.40
2010,08,15,07,00,17.40
2010,08,15,07,01,17.50
2010,08,15,07,02,17.50
2010,08,15,07,03,17.50
2010,08,15,07,04,17.50
2010,08,15,07,05,17.60
2010,08,15,07,06,17.60
2010,08,15,07,07,17.60
2010,08,15,07,08,17.60
2010,08,15,07,09,17.70
2010,08,15,07,10,17.70
2010,08,15,07,11,17.70
2010,08,15,07,12,17.70
2010,08,15,07,13,17.80
2010,08,15,07,14,17.80
2010,08,15,07,15,17.80
2010,08,15,07,16,17.90
2010,08,15,07,17,17.90
2010,08,15,07,18,17.90
2010,08,15,07,19,17.90
2010,08,15,07,20,18.00
2010,08,15,07,21,18.00
2010,08,15,07,22,18.00
2010,08,15,07,23,18.10
2010,08,15,07,24,18.10
2010,08,15,07,25,18.10
2010,08,15,07,26,18.10
2010,08,15,07,27,18.20
2010,08,15,07,28,18.20
2010,08,15,07,29,18.20
2010,08,15,07,30,18.20
2010,08,15,07,31,18.20
2010,08,15,07,32,18.20
2010,08,15,07,33,18.20
2010,08,15,07,34,18.20
2010,08,15,07,35,18.20
2010,08,15,07,36,18.20
2010,08,15,07,37,18.30
2010,08,15,07,38,18.30
2010,08,15,07,39,18.30
2010,08,15,07,40,18.40
2010,08,15,07,41,18.40
2010,08,15,07,42,18.50
2010,08,15,07,43,18.50
2010,08,15,07,44,18.60
2010,08,15,07,45,18.60
2010,08,15,07,46,18.60
2010,08,15,07,47,18.60
2010,08,15,07,48,18.60
2010,08,15,07,49,18.60
2010,08,15,07,50,18.70
2010,08,15,07,51,18.80
2010,08,15,07,52,18.80
2010,08,15,07,53,18.90
2010,08,15,07,54,18.90
2010,08,15,07,55,19.00
2010,08,15,07,56,19.10
2010,08,15,07,57,19.20
2010,08,15,07,58,19.20
2010,08,15,07,59,19.30
2010,08,15,08,00,19.40
2010,08,15,08,01,19.50
2010,08,15,08,02,19.60
2010,08,15,08,03,19.70
2010,08,15,08,04,19.80
2010,08,15,08,05,20.00
2010,08,15,08,06,20.10
2010,08,15,08,07,20.20
2010,08,15,08,08,20.30
2010,08,15,08,09,20.50
2010,08,15,08,10,20.60
2010,08,15,08,11,20.80
2010,08,15,08,12,20.90
2010,08,15,08,13,21.00
2010,08,15,08,14,21.10
2010,08,15,08,15,21.20
2010,08,15,08,16,21.40
2010,08,15,08,17,21.50
2010,08,15,08,18,21.60
2010,08,15,08,19,21.80
2010,08,15,08,20,21.90
2010,08,15,08,21,22.00
2010,08,15,08,22,22.10
2010,08,15,08,23,22.20
2010,08,15,08,24,22.30
2010,08,15,08,25,22.40
2010,08,15,08,26,22.50
2010,08,15,08,27,22.60
2010,08,15,08,28,22.70
2010,08,15,08,29,22.80
2010,08,15,08,30,22.80
2010,08,15,08,31,22.90
2010,08,15,08,32,23.00
2010,08,15,08,33,23.00
2010,08,15,08,34,23.10
2010,08,15,08,35,23.20
2010,08,15,08,36,23.20
2010,08,15,08,37,23.20
2010,08,15,08,38,23.20
2010,08,15,08,39,23.20
2010,08,15,08,40,23.20
2010,08,15,08,41,23.20
2010,08,15,08,42,23.20
2010,08,15,08,43,23.30
2010,08,15,08,44,23.30
2010,08,15,08,45,23.40
2010,08,15,08,46,23.40
2010,08,15,08,47,23.50
2010,08,15,08,48,23.50
2010,08,15,08,49,23.60
2010,08,15,08,50,23.60
2010,08,15,08,51,23.70
2010,08,15,08,52,23.70
2010,08,15,08,53,23.70
2010,08,15,08,54,23.70
2010,08,15,08,55,23.80
2010,08,15,08,56,23.80
2010,08,15,08,57,23.80
2010,08,15,08,58,23.80
2010,08,15,08,59,23.80
2010,08,15,09,00,23.80
2010,08,15,09,01,23.90
2010,08,15,09,02,23.90
2010,08,15,09,03,24.00
2010,08,15,09,04,24.10
2010,08,15,09,05,24.20
2010,08,15,09,06,24.30
2010,08,15,09,07,24.30
2010,08,15,09,08,24.40
2010,08,15,09,09,24.50
2010,08,15,09,10,24.60
2010,08,15,09,11,24.60
2010,08,15,09,12,24.70
2010,08,15,09,13,24.80
2010,08,15,09,14,24.80
2010,08,15,09,15,24.90
2010,08,15,09,16,24.90
2010,08,15,09,17,24.90
2010,08,15,09,18,24.90
2010,08,15,09,19,24.90
2010,08,15,09,20,24.90
2010,08,15,09,21,25.00
2010,08,15,09,22,25.00
2010,08,15,09,23,25.10
2010,08,15,09,24,25.20
2010,08,15,09,25,25.20
2010,08,15,09,26,25.20
2010,08,15,09,27,25.20
2010,08,15,09,28,25.20
2010,08,15,09,29,25.20
2010,08,15,09,30,25.20
2010,08,15,09,31,25.20
2010,08,15,09,32,25.30
2010,08,15,09,33,25.40
2010,08,15,09,34,25.50
2010,08,15,09,35,25.70
2010,08,15,09,36,25.80
2010,08,15,09,37,25.80
2010,08,15,09,38,25.70
2010,08,15,09,39,25.70
2010,08,15,09,40,25.60
2010,08,15,09,41,25.60
2010,08,15,09,42,25.60
2010,08,15,09,43,25.70
2010,08,15,09,44,25.70
2010,08,15,09,45,25.70
2010,08,15,09,46,25.70
2010,08,15,09,47,25.70
2010,08,15,09,48,25.70
2010,08,15,09,49,25.70
2010,08,15,09,50,25.80
2010,08,15,09,51,25.90
2010,08,15,09,52,25.90
2010,08,15,09,53,25.90
2010,08,15,09,54,26.00
2010,08,15,09,55,26.10
2010,08,15,09,56,26.30
2010,08,15,09,57,26.40
2010,08,15,09,58,26.50
2010,08,15,09,59,26.60
2010,08,15,10,00,26.70
2010,08,15,10,01,26.60
2010,08,15,10,02,26.70
2010,08,15,10,03,26.70
2010,08,15,10,04,26.70
2010,08,15,10,05,26.70
2010,08,15,10,06,26.80
2010,08,15,10,07,26.80
2010,08,15,10,08,26.90
2010,08,15,10,09,26.90
2010,08,15,10,10,27.00
2010,08,15,10,11,27.00
2010,08,15,10,12,26.90
2010,08,15,10,13,26.90
2010,08,15,10,14,27.00
2010,08,15,10,15,27.10
2010,08,15,10,16,27.20
2010,08,15,10,17,27.30
2010,08,15,10,18,27.40
2010,08,15,10,19,27.50
2010,08,15,10,20,27.60
2010,08,15,10,21,27.70
2010,08,15,10,22,27.70
2010,08,15,10,23,27.70
2010,08,15,10,24,27.70
2010,08,15,10,25,27.70
2010,08,15,10,26,27.70
2010,08,15,10,27,27.70
2010,08,15,10,28,27.70
2010,08,15,10,29,27.70
2010,08,15,10,30,27.80
2010,08,15,10,31,27.80
2010,08,15,10,32,27.80
2010,08,15,10,33,27.80
2010,08,15,10,34,27.70
2010,08,15,10,35,27.70
2010,08,15,10,36,27.80
2010,08,15,10,37,27.80
2010,08,15,10,38,27.80
2010,08,15,10,39,27.80
2010,08,15,10,40,27.70
2010,08,15,10,41,27.70
2010,08,15,10,42,27.60
2010,08,15,10,43,27.60
2010,08,15,10,44,27.50
2010,08,15,10,45,27.50
2010,08,15,10,46,27.40
2010,08,15,10,47,27.40
2010,08,15,10,48,27.40
2010,08,15,10,49,27.40
2010,08,15,10,50,27.50
2010,08,15,10,51,27.60
2010,08,15,10,52,27.70
2010,08,15,10,53,27.70
2010,08,15,10,54,27.80
2010,08,15,10,55,27.80
2010,08,15,10,56,27.70
2010,08,15,10,57,27.70
2010,08,15,10,58,27.60
2010,08,15,10,59,27.50
2010,08,15,11,00,27.40
2010,08,15,11,01,27.40
2010,08,15,11,02,27.40
2010,08,15,11,03,27.50
2010,08,15,11,04,27.60
2010,08,15,11,05,27.70
2010,08,15,11,06,27.80
2010,08,15,11,07,27.80
2010,08,15,11,08,27.90
2010,08,15,11,09,28.00
2010,08,15,11,10,28.10
2010,08,15,11,11,28.20
2010,08,15,11,12,28.20
2010,08,15,11,13,28.40
2010,08,15,11,14,28.50
2010,08,15,11,15,28.60
2010,08,15,11,16,28.70
2010,08,15,11,17,28.70
2010,08,15,11,18,28.80
2010,08,15,11,19,28.80
2010,08,15,11,20,28.80
2010,08,15,11,21,28.80
2010,08,15,11,22,28.80
2010,08,15,11,23,28.80
2010,08,15,11,24,28.90
2010,08,15,11,25,28.90
2010,08,15,11,26,29.00
2010,08,15,11,27,29.10
2010,08,15,11,28,29.10
2010,08,15,11,29,29.20
2010,08,15,11,30,29.20
2010,08,15,11,31,29.20
2010,08,15,11,32,29.20
2010,08,15,11,33,29.20
2010,08,15,11,34,29.20
2010,08,15,11,35,29.30
2010,08,15,11,36,29.30
2010,08,15,11,37,29.40
2010,08,15,11,38,29.40
2010,08,15,11,39,29.50
2010,08,15,11,40,29.60
2010,08,15,11,41,29.70
2010,08,15,11,42,29.80
2010,08,15,11,43,29.90
2010,08,15,11,44,29.90
2010,08,15,11,45,30.00
2010,08,15,11,46,30.00
2010,08,15,11,47,30.10
2010,08,15,11,48,30.10
2010,08,15,11,49,30.10
2010,08,15,11,50,29.90
2010,08,15,11,51,29.70
2010,08,15,11,52,29.60
2010,08,15,11,53,29.60
2010,08,15,11,54,29.60
2010,08,15,11,55,29.60
2010,08,15,11,56,29.60
2010,08,15,11,57,29.60
2010,08,15,11,58,29.70
2010,08,15,11,59,29.80
2010,08,15,12,00,29.80
2010,08,15,12,01,29.80
2010,08,15,12,02,29.70
2010,08,15,12,03,29.70
2010,08,15,12,04,29.70
2010,08,15,12,05,29.70
2010,08,15,12,06,29.70
2010,08,15,12,07,29.80
2010,08,15,12,08,29.80
2010,08,15,12,09,29.80
2010,08,15,12,10,29.70
2010,08,15,12,11,29.70
2010,08,15,12,12,29.60
2010,08,15,12,13,29.60
2010,08,15,12,14,29.60
2010,08,15,12,15,29.70
2010,08,15,12,16,29.80
2010,08,15,12,17,29.80
2010,08,15,12,18,29.80
2010,08,15,12,19,29.90
2010,08,15,12,20,29.90
2010,08,15,12,21,29.90
2010,08,15,12,22,29.90
2010,08,15,12,23,30.00
2010,08,15,12,24,30.00
2010,08,15,12,25,30.00
2010,08,15,12,26,30.10
2010,08,15,12,27,30.10
2010,08,15,12,28,30.00
2010,08,15,12,29,30.00
2010,08,15,12,30,30.00
2010,08,15,12,31,29.80
2010,08,15,12,32,29.70
2010,08,15,12,33,29.60
2010,08,15,12,34,29.70
2010,08,15,12,35,29.70
2010,08,15,12,36,29.70
2010,08,15,12,37,29.70
2010,08,15,12,38,29.80
2010,08,15,12,39,29.80
2010,08,15,12,40,29.80
2010,08,15,12,41,29.90
2010,08,15,12,42,30.00
2010,08,15,12,43,30.10
2010,08,15,12,44,30.10
2010,08,15,12,45,30.20
2010,08,15,12,46,30.10
2010,08,15,12,47,30.00
2010,08,15,12,48,30.00
2010,08,15,12,49,30.00
2010,08,15,12,50,30.00
2010,08,15,12,51,30.00
2010,08,15,12,52,30.00
2010,08,15,12,53,30.20
2010,08,15,12,54,30.30
2010,08,15,12,55,30.30
2010,08,15,12,56,30.30
2010,08,15,12,57,30.40
2010,08,15,12,58,30.40
2010,08,15,12,59,30.40
2010,08,15,13,00,30.40
2010,08,15,13,01,30.50
2010,08,15,13,02,30.40
2010,08,15,13,03,30.40
2010,08,15,13,04,30.40
2010,08,15,13,05,30.40
2010,08,15,13,06,30.40
2010,08,15,13,07,30.50
2010,08,15,13,08,30.60
2010,08,15,13,09,30.70
2010,08,15,13,10,30.80
2010,08,15,13,11,30.90
2010,08,15,13,12,31.00
2010,08,15,13,13,31.10
2010,08,15,13,14,31.20
2010,08,15,13,15,31.30
2010,08,15,13,16,31.40
2010,08,15,13,17,31.50
2010,08,15,13,18,31.60
2010,08,15,13,19,31.70
2010,08,15,13,20,31.80
2010,08,15,13,21,31.90
2010,08,15,13,22,31.90
2010,08,15,13,23,32.00
2010,08,15,13,24,32.10
2010,08,15,13,25,32.10
2010,08,15,13,26,32.10
2010,08,15,13,27,32.10
2010,08,15,13,28,32.00
2010,08,15,13,29,32.00
2010,08,15,13,30,31.90
2010,08,15,13,31,31.90
2010,08,15,13,32,31.90
2010,08,15,13,33,31.90
2010,08,15,13,34,31.80
2010,08,15,13,35,31.80
2010,08,15,13,36,31.80
2010,08,15,13,37,31.80
2010,08,15,13,38,31.90
2010,08,15,13,39,32.00
2010,08,15,13,40,32.00
2010,08,15,13,41,32.10
2010,08,15,13,42,32.20
2010,08,15,13,43,32.40
2010,08,15,13,44,32.40
2010,08,15,13,45,32.40
2010,08,15,13,46,32.40
2010,08,15,13,47,32.40
2010,08,15,13,48,32.40
2010,08,15,13,49,32.50
2010,08,15,13,50,32.60
2010,08,15,13,51,32.60
2010,08,15,13,52,32.60
2010,08,15,13,53,32.50
2010,08,15,13,54,32.50
2010,08,15,13,55,32.50
2010,08,15,13,56,32.50
2010,08,15,13,57,32.40
2010,08,15,13,58,32.30
2010,08,15,13,59,32.20
2010,08,15,14,00,32.10
2010,08,15,14,01,32.00
2010,08,15,14,02,31.90
2010,08,15,14,03,31.80
2010,08,15,14,04,31.80
2010,08,15,14,05,31.80
2010,08,15,14,06,31.80
2010,08,15,14,07,31.90
2010,08,15,14,08,31.90
2010,08,15,14,09,31.90
2010,08,15,14,10,31.80
2010,08,15,14,11,31.70
2010,08,15,14,12,31.50
2010,08,15,14,13,31.50
2010,08,15,14,14,31.40
2010,08,15,14,15,31.40
2010,08,15,14,16,31.50
2010,08,15,14,17,31.50
2010,08,15,14,18,31.60
2010,08,15,14,19,31.70
2010,08,15,14,20,31.80
2010,08,15,14,21,31.90
2010,08,15,14,22,32.00
2010,08,15,14,23,32.10
2010,08,15,14,24,32.30
2010,08,15,14,25,32.40
2010,08,15,14,26,32.40
2010,08,15,14,27,32.40
2010,08,15,14,28,32.50
2010,08,15,14,29,32.60
2010,08,15,14,30,32.70
2010,08,15,14,31,32.60
2010,08,15,14,32,32.60
2010,08,15,14,33,32.60
2010,08,15,14,34,32.60
2010,08,15,14,35,32.70
2010,08,15,14,36,32.70
2010,08,15,14,37,32.80
2010,08,15,14,38,32.90
2010,08,15,14,39,32.90
2010,08,15,14,40,33.00
2010,08,15,14,41,33.00
2010,08,15,14,42,33.10
2010,08,15,14,43,33.20
2010,08,15,14,44,33.20
2010,08,15,14,45,33.20
2010,08,15,14,46,33.30
2010,08,15,14,47,33.40
2010,08,15,14,48,33.40
2010,08,15,14,49,33.40
2010,08,15,14,50,33.50
2010,08,15,14,51,33.50
2010,08,15,14,52,33.50
2010,08,15,14,53,33.40
2010,08,15,14,54,33.40
2010,08,15,14,55,33.30
2010,08,15,14,56,33.30
2010,08,15,14,57,33.20
2010,08,15,14,58,33.10
2010,08,15,14,59,33.00
2010,08,15,15,00,32.90
2010,08,15,15,01,32.80
2010,08,15,15,02,32.80
2010,08,15,15,03,32.70
2010,08,15,15,04,32.50
2010,08,15,15,05,32.40
2010,08,15,15,06,32.30
2010,08,15,15,07,32.20
2010,08,15,15,08,32.20
2010,08,15,15,09,32.30
2010,08,15,15,10,32.30
2010,08,15,15,11,32.50
2010,08,15,15,12,32.60
2010,08,15,15,13,32.80
2010,08,15,15,14,33.00
2010,08,15,15,15,33.20
2010,08,15,15,16,33.20
2010,08,15,15,17,33.20
2010,08,15,15,18,33.20
2010,08,15,15,19,33.10
2010,08,15,15,20,33.00
2010,08,15,15,21,32.90
2010,08,15,15,22,32.90
2010,08,15,15,23,32.90
2010,08,15,15,24,32.90
2010,08,15,15,25,33.00
2010,08,15,15,26,33.00
2010,08,15,15,27,33.00
2010,08,15,15,28,33.00
2010,08,15,15,29,32.90
2010,08,15,15,30,33.00
2010,08,15,15,31,33.10
2010,08,15,15,32,33.10
2010,08,15,15,33,33.20
2010,08,15,15,34,33.10
2010,08,15,15,35,33.10
2010,08,15,15,36,33.10
2010,08,15,15,37,33.10
2010,08,15,15,38,33.10
2010,08,15,15,39,33.10
2010,08,15,15,40,33.20
2010,08,15,15,41,33.30
2010,08,15,15,42,33.30
2010,08,15,15,43,33.30
2010,08,15,15,44,33.40
2010,08,15,15,45,33.50
2010,08,15,15,46,33.60
2010,08,15,15,47,33.60
2010,08,15,15,48,33.70
2010,08,15,15,49,33.80
2010,08,15,15,50,33.80
2010,08,15,15,51,33.80
2010,08,15,15,52,33.80
2010,08,15,15,53,33.80
2010,08,15,15,54,33.80
2010,08,15,15,55,33.80
2010,08,15,15,56,33.90
2010,08,15,15,57,33.90
2010,08,15,15,58,33.90
2010,08,15,15,59,33.80
2010,08,15,16,00,33.70
2010,08,15,16,01,33.60
2010,08,15,16,02,33.50
2010,08,15,16,03,33.50
2010,08,15,16,04,33.40
2010,08,15,16,05,33.40
2010,08,15,16,06,33.30
2010,08,15,16,07,33.30
2010,08,15,16,08,33.30
2010,08,15,16,09,33.30
2010,08,15,16,10,33.30
2010,08,15,16,11,33.30
2010,08,15,16,12,33.30
2010,08,15,16,13,33.40
2010,08,15,16,14,33.30
2010,08,15,16,15,33.30
2010,08,15,16,16,33.30
2010,08,15,16,17,33.20
2010,08,15,16,18,33.20
2010,08,15,16,19,33.10
2010,08,15,16,20,33.20
2010,08,15,16,21,33.20
2010,08,15,16,22,33.20
2010,08,15,16,23,33.20
2010,08,15,16,24,33.20
2010,08,15,16,25,33.20
2010,08,15,16,26,33.20
2010,08,15,16,27,33.20
2010,08,15,16,28,33.20
2010,08,15,16,29,33.20
2010,08,15,16,30,33.10
2010,08,15,16,31,33.00
2010,08,15,16,32,33.00
2010,08,15,16,33,33.00
2010,08,15,16,34,32.90
2010,08,15,16,35,32.80
2010,08,15,16,36,32.80
2010,08,15,16,37,32.70
2010,08,15,16,38,32.70
2010,08,15,16,39,32.60
2010,08,15,16,40,32.50
2010,08,15,16,41,32.50
2010,08,15,16,42,32.40
2010,08,15,16,43,32.40
2010,08,15,16,44,32.40
2010,08,15,16,45,32.40
2010,08,15,16,46,32.30
2010,08,15,16,47,32.30
2010,08,15,16,48,32.40
2010,08,15,16,49,32.40
2010,08,15,16,50,32.50
2010,08,15,16,51,32.50
2010,08,15,16,52,32.60
2010,08,15,16,53,32.70
2010,08,15,16,54,32.70
2010,08,15,16,55,32.60
2010,08,15,16,56,32.60
2010,08,15,16,57,32.60
2010,08,15,16,58,32.60
2010,08,15,16,59,32.60
2010,08,15,17,00,32.70
2010,08,15,17,01,32.70
2010,08,15,17,02,32.70
2010,08,15,17,03,32.70
2010,08,15,17,04,32.70
2010,08,15,17,05,32.70
2010,08,15,17,06,32.70
2010,08,15,17,07,32.70
2010,08,15,17,08,32.70
2010,08,15,17,09,32.70
2010,08,15,17,10,32.70
2010,08,15,17,11,32.70
2010,08,15,17,12,32.60
2010,08,15,17,13,32.60
2010,08,15,17,14,32.50
2010,08,15,17,15,32.50
2010,08,15,17,16,32.40
2010,08,15,17,17,32.40
2010,08,15,17,18,32.40
2010,08,15,17,19,32.40
2010,08,15,17,20,32.40
2010,08,15,17,21,32.40